TimeCDT,TemperatureF,Dew PointF,Humidity,Sea Level PressureIn,VisibilityMPH,Wind Direction,Wind SpeedMPH,Gust SpeedMPH,PrecipitationIn,Events,Conditions,WindDirDegrees,DateUTC
12:54 AM,70.0,64.9,84,29.89,10.0,South,10.4,-,0.00,,Mostly Cloudy,190,2012-10-23 05:54:00
1:54 AM,70.0,64.0,81,29.89,10.0,SSW,15.0,-,0.00,Rain,Light Rain,200,2012-10-23 06:54:00
2:54 AM,68.0,64.0,87,29.88,10.0,SSW,8.1,-,0.00,,Scattered Clouds,200,2012-10-23 07:54:00
3:54 AM,66.9,64.0,90,29.88,8.0,SSW,5.8,-,0.01,Rain,Light Rain,200,2012-10-23 08:54:00
4:06 AM,66.2,64.4,94,29.90,10.0,South,5.8,-,0.00,Thunderstorm,Thunderstorm,180,2012-10-23 09:06:00
4:36 AM,68.0,64.4,88,29.89,6.0,South,8.1,-,N/A,Rain,Light Rain,180,2012-10-23 09:36:00
4:54 AM,68.0,64.0,87,29.88,7.0,SSW,8.1,-,0.06,Rain,Light Rain,200,2012-10-23 09:54:00
5:05 AM,66.2,64.4,94,29.90,7.0,SSW,6.9,-,0.02,Rain-Thunderstorm,Light Rain,200,2012-10-23 10:05:00
5:17 AM,66.2,64.4,94,29.91,8.0,SSW,8.1,-,0.03,Rain-Thunderstorm,Light Rain,200,2012-10-23 10:17:00
5:38 AM,66.2,64.4,94,29.93,6.0,SSW,13.8,-,0.07,Rain,Light Rain,210,2012-10-23 10:38:00
5:54 AM,66.0,63.0,90,29.92,6.0,SSW,11.5,-,0.10,Rain,Rain,210,2012-10-23 10:54:00
6:54 AM,64.9,63.0,93,29.92,5.0,SSE,8.1,-,0.12,Rain,Light Rain,160,2012-10-23 11:54:00
7:54 AM,64.0,62.1,93,29.92,4.0,South,10.4,-,0.08,Rain,Rain,190,2012-10-23 12:54:00
8:15 AM,64.4,62.6,94,29.93,4.0,South,12.7,-,0.04,Rain,Rain,170,2012-10-23 13:15:00
8:24 AM,64.4,62.6,94,29.93,1.8,South,10.4,-,0.06,Rain,Heavy Rain,170,2012-10-23 13:24:00
8:28 AM,64.4,62.6,94,29.93,0.8,South,12.7,-,0.10,Rain,Heavy Rain,170,2012-10-23 13:28:00
8:39 AM,64.4,62.6,94,29.94,1.5,SSE,10.4,-,0.35,Rain,Rain,160,2012-10-23 13:39:00
8:44 AM,64.4,62.6,94,29.94,3.0,South,8.1,-,0.37,Rain,Rain,170,2012-10-23 13:44:00
8:54 AM,64.0,62.1,93,29.92,2.0,SSE,11.5,-,0.39,Rain,Heavy Rain,160,2012-10-23 13:54:00
9:01 AM,64.4,62.6,94,29.94,1.8,South,10.4,-,0.06,Rain,Rain,170,2012-10-23 14:01:00
9:10 AM,64.4,62.6,94,29.94,2.5,SSE,10.4,-,0.12,Rain,Light Rain,160,2012-10-23 14:10:00
9:17 AM,64.4,62.6,94,29.93,6.0,SSE,13.8,-,N/A,Rain,Light Rain,160,2012-10-23 14:17:00
9:25 AM,64.4,62.6,94,29.93,2.5,SSE,13.8,-,0.16,Rain,Light Rain,150,2012-10-23 14:25:00
9:32 AM,64.4,62.6,94,29.93,7.0,SSE,13.8,-,0.16,Rain,Light Rain,150,2012-10-23 14:32:00
9:40 AM,64.4,62.6,94,29.93,10.0,SSE,12.7,-,0.17,Rain,Light Rain,150,2012-10-23 14:40:00
9:54 AM,64.0,62.1,93,29.91,10.0,SE,12.7,-,0.17,,Overcast,140,2012-10-23 14:54:00
10:54 AM,66.0,63.0,90,29.90,10.0,SSE,9.2,-,0.00,,Overcast,150,2012-10-23 15:54:00
11:31 AM,68.0,62.6,83,29.91,10.0,SE,12.7,-,N/A,,Overcast,140,2012-10-23 16:31:00
11:54 AM,69.8,62.6,78,29.91,10.0,SSE,8.1,-,N/A,,Overcast,150,2012-10-23 16:54:00
12:54 PM,73.9,64.9,73,29.86,10.0,South,10.4,-,N/A,,Scattered Clouds,170,2012-10-23 17:54:00
1:54 PM,77.0,66.0,69,29.83,10.0,South,10.4,-,N/A,,Mostly Cloudy,170,2012-10-23 18:54:00
2:54 PM,80.1,66.0,62,29.81,10.0,South,9.2,-,N/A,,Overcast,190,2012-10-23 19:54:00
3:54 PM,80.1,66.0,62,29.80,10.0,SSW,11.5,-,N/A,,Partly Cloudy,210,2012-10-23 20:54:00
4:54 PM,80.1,66.9,64,29.79,10.0,SSW,9.2,-,N/A,,Partly Cloudy,210,2012-10-23 21:54:00
5:54 PM,79.0,64.0,60,29.79,10.0,South,10.4,-,N/A,,Clear,180,2012-10-23 22:54:00
6:54 PM,73.9,63.0,68,29.81,10.0,South,9.2,-,N/A,,Clear,180,2012-10-23 23:54:00
7:54 PM,72.0,62.1,71,29.82,10.0,South,9.2,-,N/A,,Clear,170,2012-10-24 00:54:00
8:54 PM,71.1,60.1,68,29.83,10.0,SSE,9.2,-,N/A,,Clear,160,2012-10-24 01:54:00
9:54 PM,71.1,57.9,63,29.86,10.0,South,8.1,-,N/A,,Partly Cloudy,180,2012-10-24 02:54:00
10:54 PM,72.0,57.0,59,29.88,10.0,SSW,6.9,-,N/A,,Overcast,200,2012-10-24 03:54:00
11:54 PM,71.1,57.9,63,29.88,10.0,South,10.4,-,N/A,,Mostly Cloudy,170,2012-10-24 04:54:00